Location: Anjeux
(47.8815°N, 6.2076°E)
Time: 12:04:08
(UTC+00:00)

AO-27 - Pass Details

Date: 17 December 2021
Orbit: 784 x 798 km, 98.9° (Epoch: 24 January)

Event Time Altitude Azimuth Distance (km) Brightness Sun altitude
Rises 18:09:55 0° 170° (S) 3,290 10.9 -23.4°
Reaches altitude 10° 18:12:15 10° 172° (S) 2,365 10.1 -23.8°
Maximum altitude 18:17:28 71° 256° (WSW) 845 7.9 -24.6°
Drops below altitude 10° 18:22:43 10° 341° (NNW) 2,381 10.3 -25.5°
Sets 18:25:05 0° 344° (NNW) 3,314 11.0 -25.9°
